Location: Beaver Brook Station
(42.3793°N, 71.2203°W)
Time: 01:47:54
(UTC+00:00)

YAOGAN 6 - Pass Details

Date: 29 October 2020
Orbit: 464 x 504 km, 97.0° (Epoch: 05 December)

Event Time Altitude Azimuth Distance (km) Brightness Sun altitude
Rises 22:25:31 0° 184° (S) 2,564 6.4 -8.7°
Reaches altitude 10° 22:27:40 10° 193° (SSW) 1,693 5.6 -9.1°
Maximum altitude 22:31:06 38° 263° (W) 781 4.4 -9.7°
Drops below altitude 10° 22:34:34 10° 332° (NNW) 1,721 5.6 -10.4°
Sets 22:36:47 0° 341° (NNW) 2,613 6.4 -10.8°
